CZ-6A DEB, 60761

Orbit data source: Space-Track

CZ-6A DEB, 60761 is space debris in LEO originally from a launch on Tue, 06 Aug 2024 UTC launched from the Taiyaun Space Center, China (TSC). Debris objects in space refer to the collection of defunct objects orbiting the Earth. Examples of debris include non-operational satellites, rocket bodies, and fragments generated from explosions, collisions, or faulty payload assembly.

Loading next visibility...
Identifier
60761, 2024-140EL
Orbit
LEO
Country
Flag of CNCN / PRC
Related business
Manufacturer
SAST
Mission
Spacecraft
Bus & Motor
Unknown
Mass
Unknown
Launch date (UTC)
2024-08-06 (2 years ago)
Launch vehicle
Unknown
Launch site
Taiyaun Space Center, China (TSC)
Object type
Payload
Rocket body
Debris
Shape & HBR
Unknown shape, 0.1 m
Radar Cross Section
Medium (>0.1 m² and <1 m²)

Expand to show TLE details & history
Last TLE update: 15 hours ago

TLE from 15 hours ago
0 CZ-6A DEB
1 60761U 24140EL  26171.28263720  .00024442  00000-0  25783-2 0  9991
2 60761  89.0029 268.8044 0058153 190.6111 169.3895 14.87935771 99655
Epoch: 2026-06-20T06:46Z
TLE epoch observation values (Epoch: 2026-06-20T06:46:59.854Z)
Latitude
-0°
Longitude
-101.44448°
Altitude
647.464 km
Speed
7.512 km/s
True Right ascension
17h 55m 13s
True Declination
0° 00' 00"
Sunlit
Object was in full shadow at epoch
Visualization orbit readout
Latitude
Unknown
Longitude
Unknown
Altitude
Unknown
Speed
Unknown
Apparent Right ascension
Unknown
Apparent Declination
Unknown
Sunlit
N/A
Visualization observer readout
Local Sidereal Time
08:43:02
Azimuth
Unknown
Elevation
Unknown
Doppler factor
Unknown
Orbital elements
Apogee altitude
641.828 km
Perigee altitude
560.653 km
Semi-major axis
6,979.378 km
Eccentricity
0.00582
Inclination
89.0029°
RAAN
268.8044°
Arg. of periapsis
190.6111°
True anomaly
169.51133°
Mean anomaly
169.3895°
Eccentric anomaly
169.4505°
Mean motion
3.72236 °/min
Orbital period
96.71 mins
BSTAR
0.0025783
Loading maneuver chart data...
Computing Atmospheric mass density...
Loading historical data...
Loading historical data...
Loading historical data...
Loading historical data...
Loading historical data...
Loading historical data...
Loading historical data...

Documentation

Showing up to 5 results
|